• In Hungary
  • List of Countries
  • For 7 days
  • Water Temperature
  • Satellite Maps
  • Weather Map
  • News
  • Weather Widgets
  • user-avatar
    Login

    Hourly Weather Gurevskie Vyselki

    Today, 25 September, Tuesday

    Time Temperature Precipitation Wind Pressure Humidity
    00:00 +10°C° 0.2 mm 8 mps 729 mmHg 86%
    01:00 +9°C° 0 mm 8 mps 729 mmHg 85%
    02:00 +7°C° 0 mm 8 mps 729 mmHg 84%
    03:00 +8°C° 0 mm 6 mps 729 mmHg 84%
    04:00 +7°C° 0 mm 6 mps 729 mmHg 83%
    05:00 +6°C° 0 mm 7 mps 730 mmHg 83%
    06:00 +6°C° 0 mm 7 mps 730 mmHg 83%
    07:00 +6°C° 0 mm 7 mps 730 mmHg 82%
    08:00 +6°C° 0 mm 7 mps 731 mmHg 82%
    09:00 +6°C° 0 mm 7 mps 731 mmHg 82%
    10:00 +6°C° 0 mm 7 mps 732 mmHg 80%
    11:00 +8°C° 0 mm 7 mps 733 mmHg 78%
    12:00 +7°C° 0 mm 8 mps 733 mmHg 77%
    13:00 +8°C° 0.1 mm 7 mps 734 mmHg 76%
    14:00 +8°C° 0.1 mm 7 mps 735 mmHg 75%
    15:00 +8°C° 0.1 mm 7 mps 736 mmHg 74%
    16:00 +6°C° 0.1 mm 7 mps 736 mmHg 75%
    17:00 +7°C° 0.1 mm 6 mps 737 mmHg 76%
    18:00 +7°C° 0.1 mm 6 mps 738 mmHg 77%
    19:00 +5°C° 0.1 mm 6 mps 738 mmHg 77%
    20:00 +5°C° 0.1 mm 6 mps 739 mmHg 78%
    21:00 +6°C° 0.1 mm 5 mps 739 mmHg 78%
    22:00 +5°C° 0 mm 5 mps 740 mmHg 79%
    23:00 +5°C° 0 mm 5 mps 741 mmHg 80%

    Tomorrow, 26 September, Wednesday

    Time Temperature Precipitation Wind Pressure Humidity
    00:00 +5°C° 0 mm 5 mps 741 mmHg 80%
    01:00 +3°C° 0 mm 5 mps 742 mmHg 82%
    02:00 +3°C° 0 mm 5 mps 742 mmHg 84%
    03:00 +3°C° 0 mm 5 mps 743 mmHg 86%
    04:00 +3°C° 0 mm 4 mps 744 mmHg 87%
    05:00 +3°C° 0 mm 4 mps 744 mmHg 88%
    06:00 +1°C° 0 mm 4 mps 745 mmHg 89%
    07:00 +3°C° 0 mm 4 mps 745 mmHg 85%
    08:00 +3°C° 0 mm 5 mps 746 mmHg 80%
    09:00 +3°C° 0 mm 5 mps 747 mmHg 75%
    10:00 +6°C° 0 mm 5 mps 747 mmHg 68%
    11:00 +7°C° 0 mm 5 mps 747 mmHg 61%
    12:00 +8°C° 0 mm 5 mps 748 mmHg 54%
    13:00 +8°C° 0 mm 5 mps 748 mmHg 52%
    14:00 +9°C° 0 mm 5 mps 748 mmHg 50%
    15:00 +10°C° 0 mm 4 mps 747 mmHg 48%
    16:00 +8°C° 0 mm 4 mps 747 mmHg 53%
    17:00 +8°C° 0 mm 3 mps 747 mmHg 58%
    18:00 +7°C° 0 mm 3 mps 747 mmHg 64%
    19:00 +7°C° 0 mm 3 mps 747 mmHg 66%
    20:00 +5°C° 0 mm 4 mps 747 mmHg 69%
    21:00 +5°C° 0 mm 4 mps 746 mmHg 72%
    22:00 +5°C° 0 mm 5 mps 746 mmHg 71%
    23:00 +4°C° 0 mm 6 mps 745 mmHg 69%

    Day after tomorrow, 27 September, Thursday

    Time Temperature Precipitation Wind Pressure Humidity
    00:00 +4°C° 0 mm 6 mps 744 mmHg 68%
    01:00 +4°C° 0.1 mm 7 mps 743 mmHg 66%
    02:00 +5°C° 0.1 mm 7 mps 743 mmHg 65%
    03:00 +5°C° 0.1 mm 8 mps 742 mmHg 64%
    04:00 +3°C° 0.7 mm 9 mps 740 mmHg 68%
    05:00 +3°C° 0.7 mm 10 mps 739 mmHg 73%
    06:00 +3°C° 0.7 mm 10 mps 738 mmHg 77%
    07:00 +3°C° 0.9 mm 10 mps 737 mmHg 80%
    08:00 +3°C° 0.9 mm 10 mps 736 mmHg 82%
    09:00 +3°C° 0.9 mm 10 mps 736 mmHg 84%
    10:00 +5°C° 0.3 mm 10 mps 735 mmHg 84%
    11:00 +6°C° 0.3 mm 10 mps 735 mmHg 84%
    12:00 +6°C° 0.3 mm 9 mps 735 mmHg 85%
    13:00 +7°C° 0.3 mm 9 mps 735 mmHg 84%
    14:00 +7°C° 0.3 mm 8 mps 735 mmHg 83%
    15:00 +9°C° 0.3 mm 8 mps 735 mmHg 82%
    16:00 +9°C° 0.2 mm 7 mps 735 mmHg 80%
    17:00 +8°C° 0.2 mm 7 mps 735 mmHg 79%
    18:00 +8°C° 0.2 mm 6 mps 736 mmHg 77%
    19:00 +7°C° 0 mm 5 mps 736 mmHg 78%
    20:00 +7°C° 0 mm 5 mps 737 mmHg 79%
    21:00 +6°C° 0 mm 4 mps 738 mmHg 80%
    22:00 +6°C° 0 mm 4 mps 738 mmHg 81%
    23:00 +5°C° 0 mm 5 mps 738 mmHg 81%

    28 September, Friday

    Time Temperature Precipitation Wind Pressure Humidity
    00:00 +5°C° 0 mm 5 mps 738 mmHg 82%
    01:00 +5°C° 0 mm 5 mps 739 mmHg 83%
    02:00 +5°C° 0 mm 5 mps 739 mmHg 83%
    03:00 +3°C° 0 mm 5 mps 739 mmHg 84%
    04:00 +3°C° 0 mm 5 mps 740 mmHg 85%
    05:00 +3°C° 0 mm 5 mps 740 mmHg 86%
    06:00 +2°C° 0 mm 5 mps 740 mmHg 87%
    07:00 +3°C° 0 mm 5 mps 740 mmHg 82%
    08:00 +6°C° 0 mm 5 mps 739 mmHg 78%
    09:00 +7°C° 0 mm 5 mps 739 mmHg 73%
    10:00 +8°C° 0 mm 7 mps 739 mmHg 70%
    11:00 +10°C° 0 mm 8 mps 738 mmHg 67%
    12:00 +12°C° 0 mm 9 mps 737 mmHg 64%
    13:00 +12°C° 0.1 mm 9 mps 736 mmHg 69%
    14:00 +12°C° 0.1 mm 9 mps 735 mmHg 74%
    15:00 +12°C° 0.1 mm 10 mps 735 mmHg 79%
    16:00 +12°C° 0.3 mm 9 mps 734 mmHg 81%
    17:00 +12°C° 0.3 mm 9 mps 734 mmHg 83%
    18:00 +12°C° 0.3 mm 9 mps 733 mmHg 85%
    19:00 +12°C° 0.5 mm 9 mps 734 mmHg 83%
    20:00 +12°C° 0.5 mm 9 mps 734 mmHg 82%
    21:00 +12°C° 0.5 mm 8 mps 734 mmHg 81%
    22:00 +10°C° 0 mm 8 mps 735 mmHg 82%
    23:00 +8°C° 0 mm 7 mps 736 mmHg 82%

    29 September, Saturday

    Time Temperature Precipitation Wind Pressure Humidity
    00:00 +6°C° 0 mm 7 mps 738 mmHg 83%
    01:00 +4°C° 0 mm 6 mps 739 mmHg 84%
    02:00 +3°C° 0 mm 5 mps 740 mmHg 85%
    03:00 +3°C° 0 mm 4 mps 741 mmHg 85%
    04:00 +2°C° 0 mm 3 mps 741 mmHg 86%
    05:00 +1°C° 0 mm 3 mps 742 mmHg 88%
    06:00 +1°C° 0 mm 3 mps 743 mmHg 89%
    07:00 +2°C° 0 mm 3 mps 743 mmHg 82%
    08:00 +3°C° 0 mm 3 mps 744 mmHg 76%
    09:00 +3°C° 0 mm 3 mps 745 mmHg 70%
    10:00 +4°C° 0 mm 3 mps 745 mmHg 62%
    11:00 +7°C° 0 mm 3 mps 746 mmHg 55%
    12:00 +8°C° 0 mm 3 mps 746 mmHg 47%
    13:00 +8°C° 0 mm 3 mps 746 mmHg 47%
    14:00 +8°C° 0 mm 3 mps 746 mmHg 46%
    15:00 +8°C° 0 mm 2 mps 746 mmHg 46%
    16:00 +8°C° 0 mm 2 mps 746 mmHg 50%
    17:00 +7°C° 0 mm 2 mps 747 mmHg 54%
    18:00 +7°C° 0 mm 1 mps 747 mmHg 58%
    19:00 +6°C° 0 mm 1 mps 747 mmHg 61%
    20:00 +6°C° 0 mm 1 mps 748 mmHg 63%
    21:00 +5°C° 0 mm 1 mps 748 mmHg 66%
    22:00 +4°C° 0 mm 1 mps 748 mmHg 67%
    23:00 +4°C° 0 mm 1 mps 748 mmHg 68%

    30 September, Sunday

    Time Temperature Precipitation Wind Pressure Humidity
    00:00 +4°C° 0 mm 1 mps 749 mmHg 70%
    01:00 +4°C° 0 mm 1 mps 749 mmHg 71%
    02:00 +3°C° 0 mm 1 mps 749 mmHg 72%
    03:00 +3°C° 0 mm 1 mps 750 mmHg 73%
    04:00 +3°C° 0 mm 1 mps 750 mmHg 74%
    05:00 +3°C° 0 mm 1 mps 750 mmHg 76%
    06:00 +3°C° 0 mm 1 mps 750 mmHg 77%
    07:00 +3°C° 0 mm 2 mps 750 mmHg 73%
    08:00 +4°C° 0 mm 2 mps 750 mmHg 69%
    09:00 +5°C° 0 mm 2 mps 751 mmHg 65%
    10:00 +7°C° 0 mm 2 mps 751 mmHg 61%
    11:00 +8°C° 0 mm 3 mps 751 mmHg 56%
    12:00 +9°C° 0 mm 3 mps 750 mmHg 52%
    13:00 +10°C° 0 mm 3 mps 750 mmHg 51%
    14:00 +10°C° 0 mm 3 mps 750 mmHg 50%
    15:00 +10°C° 0 mm 3 mps 749 mmHg 49%
    16:00 +9°C° 0 mm 3 mps 749 mmHg 54%
    17:00 +8°C° 0 mm 2 mps 749 mmHg 59%
    18:00 +7°C° 0 mm 2 mps 748 mmHg 64%
    19:00 +6°C° 0 mm 2 mps 748 mmHg 65%
    20:00 +6°C° 0 mm 2 mps 748 mmHg 66%
    21:00 +5°C° 0 mm 2 mps 748 mmHg 68%
    22:00 +5°C° 0 mm 2 mps 748 mmHg 67%
    23:00 +4°C° 0 mm 2 mps 748 mmHg 67%
    Show more